Time,TemperatureF,DewpointF,PressureIn,WindDirection,WindDirectionDegrees,WindSpeedMPH,WindSpeedGustMPH,Humidity,HourlyPrecipIn,Conditions,Clouds,dailyrainin,SolarRadiationWatts/m^2,SoftwareType,DateUTC
2013-04-16 00:03:00,38.0,37.0,-100.00,West,267,0.0,3.0,98,0.00,,,0.00,0.000000,,2013-04-16 04:03:00,
2013-04-16 00:13:00,38.0,37.0,-100.00,West,267,0.0,3.0,98,0.00,,,0.00,0.000000,,2013-04-16 04:13:00,
2013-04-16 00:23:00,38.0,37.0,-100.00,West,267,0.0,3.0,98,0.00,,,0.00,0.000000,,2013-04-16 04:23:00,
2013-04-16 00:53:00,40.0,38.0,-100.00,SSE,160,1.0,7.0,92,0.00,,,0.00,0.000000,,2013-04-16 04:53:00,
2013-04-16 01:03:00,40.0,38.0,-100.00,SSE,160,1.0,7.0,92,0.00,,,0.00,0.000000,,2013-04-16 05:03:00,
2013-04-16 01:12:00,40.0,38.0,-100.00,SSE,160,1.0,7.0,92,0.00,,,0.00,0.000000,,2013-04-16 05:12:00,
2013-04-16 01:22:00,40.0,38.0,-100.00,SSE,160,1.0,7.0,92,0.00,,,0.00,0.000000,,2013-04-16 05:22:00,
2013-04-16 01:52:00,37.0,35.0,-100.00,NNW,334,1.0,3.0,94,0.00,,,0.00,0.000000,,2013-04-16 05:52:00,
2013-04-16 02:02:00,37.0,35.0,-100.00,NNW,334,1.0,3.0,94,0.00,,,0.00,0.000000,,2013-04-16 06:02:00,
2013-04-16 02:12:00,37.0,35.0,-100.00,NNW,334,1.0,3.0,94,0.00,,,0.00,0.000000,,2013-04-16 06:12:00,
2013-04-16 02:22:00,37.0,35.0,-100.00,NNW,334,1.0,3.0,94,0.00,,,0.00,0.000000,,2013-04-16 06:22:00,
2013-04-16 02:52:00,35.0,34.0,-100.00,NW,315,1.0,2.0,96,0.00,,,0.00,0.000000,,2013-04-16 06:52:00,
2013-04-16 03:02:00,35.0,34.0,-100.00,NW,315,1.0,2.0,96,0.00,,,0.00,0.000000,,2013-04-16 07:02:00,
2013-04-16 03:12:00,35.0,34.0,-100.00,NW,315,1.0,2.0,96,0.00,,,0.00,0.000000,,2013-04-16 07:12:00,
2013-04-16 03:22:00,35.0,34.0,-100.00,NW,315,1.0,2.0,96,0.00,,,0.00,0.000000,,2013-04-16 07:22:00,
2013-04-16 03:53:00,34.0,33.0,-100.00,NNW,336,1.0,3.0,97,0.00,,,0.00,0.000000,,2013-04-16 07:53:00,
2013-04-16 04:02:00,34.0,33.0,-100.00,NNW,336,1.0,3.0,97,0.00,,,0.00,0.000000,,2013-04-16 08:02:00,
2013-04-16 04:12:00,34.0,33.0,-100.00,NNW,336,1.0,3.0,97,0.00,,,0.00,0.000000,,2013-04-16 08:12:00,
2013-04-16 04:22:00,34.0,33.0,-100.00,NNW,336,1.0,3.0,97,0.00,,,0.00,0.000000,,2013-04-16 08:22:00,
2013-04-16 04:52:00,33.0,32.0,-100.00,NNW,344,0.0,3.0,97,0.00,,,0.00,0.000000,,2013-04-16 08:52:00,
2013-04-16 05:02:00,33.0,32.0,-100.00,NNW,344,0.0,3.0,97,0.00,,,0.00,0.000000,,2013-04-16 09:02:00,
2013-04-16 05:12:00,33.0,32.0,-100.00,NNW,344,0.0,3.0,97,0.00,,,0.00,0.000000,,2013-04-16 09:12:00,
2013-04-16 05:22:00,33.0,32.0,-100.00,NNW,344,0.0,3.0,97,0.00,,,0.00,0.000000,,2013-04-16 09:22:00,
2013-04-16 05:53:00,34.0,34.0,-100.00,WNW,301,0.0,3.0,98,0.00,,,0.00,0.000000,,2013-04-16 09:53:00,
2013-04-16 06:03:00,34.0,34.0,-100.00,WNW,301,0.0,3.0,98,0.00,,,0.00,0.000000,,2013-04-16 10:03:00,
2013-04-16 06:13:00,34.0,34.0,-100.00,WNW,301,0.0,3.0,98,0.00,,,0.00,0.000000,,2013-04-16 10:13:00,
2013-04-16 06:23:00,34.0,34.0,-100.00,WNW,301,0.0,3.0,98,0.00,,,0.00,0.000000,,2013-04-16 10:23:00,
2013-04-16 06:53:00,34.0,33.0,-100.00,NW,307,0.0,3.0,97,0.00,,,0.00,6.000000,,2013-04-16 10:53:00,
2013-04-16 07:03:00,34.0,33.0,-100.00,NW,307,0.0,3.0,97,0.00,,,0.00,6.000000,,2013-04-16 11:03:00,
2013-04-16 07:12:00,34.0,33.0,-100.00,NW,307,0.0,3.0,97,0.00,,,0.00,6.000000,,2013-04-16 11:12:00,
2013-04-16 07:22:00,34.0,33.0,-100.00,NW,307,0.0,3.0,97,0.00,,,0.00,6.000000,,2013-04-16 11:22:00,
2013-04-16 07:53:00,43.0,41.0,-100.00,South,177,3.0,6.0,93,0.00,,,0.00,100.000000,,2013-04-16 11:53:00,
2013-04-16 08:02:00,43.0,41.0,-100.00,South,177,3.0,6.0,93,0.00,,,0.00,100.000000,,2013-04-16 12:02:00,
2013-04-16 08:12:00,43.0,41.0,-100.00,South,177,3.0,6.0,93,0.00,,,0.00,100.000000,,2013-04-16 12:12:00,
2013-04-16 08:22:00,43.0,41.0,-100.00,South,177,3.0,6.0,93,0.00,,,0.00,100.000000,,2013-04-16 12:22:00,
2013-04-16 08:52:00,48.0,41.0,-100.00,SSE,150,5.0,11.0,78,0.00,,,0.00,316.000000,,2013-04-16 12:52:00,
2013-04-16 09:02:00,48.0,41.0,-100.00,SSE,150,5.0,11.0,78,0.00,,,0.00,316.000000,,2013-04-16 13:02:00,
2013-04-16 09:12:00,48.0,41.0,-100.00,SSE,150,5.0,11.0,78,0.00,,,0.00,316.000000,,2013-04-16 13:12:00,
2013-04-16 09:22:00,48.0,41.0,-100.00,SSE,150,5.0,11.0,78,0.00,,,0.00,316.000000,,2013-04-16 13:22:00,
2013-04-16 09:52:00,50.0,42.0,-100.00,SE,144,7.0,14.0,73,0.00,,,0.00,386.000000,,2013-04-16 13:52:00,
2013-04-16 10:02:00,50.0,42.0,-100.00,SE,144,7.0,14.0,73,0.00,,,0.00,386.000000,,2013-04-16 14:02:00,
2013-04-16 10:12:00,50.0,42.0,-100.00,SE,144,7.0,14.0,73,0.00,,,0.00,386.000000,,2013-04-16 14:12:00,
2013-04-16 10:22:00,50.0,42.0,-100.00,SE,144,7.0,14.0,73,0.00,,,0.00,386.000000,,2013-04-16 14:22:00,
2013-04-16 10:52:00,49.0,41.0,-100.00,SE,146,7.0,24.0,74,0.00,,,0.00,355.000000,,2013-04-16 14:52:00,
2013-04-16 11:02:00,49.0,41.0,-100.00,SE,146,7.0,24.0,74,0.00,,,0.00,355.000000,,2013-04-16 15:02:00,
2013-04-16 11:12:00,49.0,41.0,-100.00,SE,146,7.0,24.0,74,0.00,,,0.00,355.000000,,2013-04-16 15:12:00,
2013-04-16 11:22:00,49.0,41.0,-100.00,SE,146,7.0,24.0,74,0.00,,,0.00,355.000000,,2013-04-16 15:22:00,
2013-04-16 11:53:00,52.0,42.0,-100.00,SSE,155,7.0,20.0,68,0.00,,,0.00,518.000000,,2013-04-16 15:53:00,
2013-04-16 12:03:00,52.0,42.0,-100.00,SSE,155,7.0,20.0,68,0.00,,,0.00,518.000000,,2013-04-16 16:03:00,
2013-04-16 12:13:00,52.0,42.0,-100.00,SSE,155,7.0,20.0,68,0.00,,,0.00,518.000000,,2013-04-16 16:13:00,
2013-04-16 12:23:00,52.0,42.0,-100.00,SSE,155,7.0,20.0,68,0.00,,,0.00,518.000000,,2013-04-16 16:23:00,
2013-04-16 12:53:00,53.0,41.0,-100.00,SSE,158,9.0,24.0,64,0.00,,,0.00,761.000000,,2013-04-16 16:53:00,
2013-04-16 13:02:00,53.0,41.0,-100.00,SSE,158,9.0,24.0,64,0.00,,,0.00,761.000000,,2013-04-16 17:02:00,
2013-04-16 13:12:00,53.0,41.0,-100.00,SSE,158,9.0,24.0,64,0.00,,,0.00,761.000000,,2013-04-16 17:12:00,
2013-04-16 13:22:00,53.0,41.0,-100.00,SSE,158,9.0,24.0,64,0.00,,,0.00,761.000000,,2013-04-16 17:22:00,
2013-04-16 13:53:00,55.0,42.0,-100.00,SSE,152,10.0,23.0,62,0.00,,,0.00,800.000000,,2013-04-16 17:53:00,
2013-04-16 14:02:00,55.0,42.0,-100.00,SSE,152,10.0,23.0,62,0.00,,,0.00,800.000000,,2013-04-16 18:02:00,
2013-04-16 14:12:00,55.0,42.0,-100.00,SSE,152,10.0,23.0,62,0.00,,,0.00,800.000000,,2013-04-16 18:12:00,
2013-04-16 14:22:00,55.0,42.0,-100.00,SSE,152,10.0,23.0,62,0.00,,,0.00,800.000000,,2013-04-16 18:22:00,
2013-04-16 14:52:00,54.0,40.0,-100.00,South,172,9.0,26.0,59,0.00,,,0.00,611.000000,,2013-04-16 18:52:00,
2013-04-16 15:02:00,54.0,40.0,-100.00,South,172,9.0,26.0,59,0.00,,,0.00,611.000000,,2013-04-16 19:02:00,
2013-04-16 15:12:00,54.0,40.0,-100.00,South,172,9.0,26.0,59,0.00,,,0.00,611.000000,,2013-04-16 19:12:00,
2013-04-16 15:22:00,54.0,40.0,-100.00,South,172,9.0,26.0,59,0.00,,,0.00,611.000000,,2013-04-16 19:22:00,
2013-04-16 15:52:00,54.0,42.0,-100.00,South,181,9.0,18.0,63,0.00,,,0.00,387.000000,,2013-04-16 19:52:00,
2013-04-16 16:02:00,54.0,42.0,-100.00,South,181,9.0,18.0,63,0.00,,,0.00,387.000000,,2013-04-16 20:02:00,
2013-04-16 16:13:00,54.0,42.0,-100.00,South,181,9.0,18.0,63,0.00,,,0.00,387.000000,,2013-04-16 20:13:00,
2013-04-16 16:22:00,54.0,42.0,-100.00,South,181,9.0,18.0,63,0.00,,,0.00,387.000000,,2013-04-16 20:22:00,
2013-04-16 16:52:00,55.0,42.0,-100.00,South,174,8.0,19.0,61,0.00,,,0.00,252.000000,,2013-04-16 20:52:00,
2013-04-16 17:02:00,55.0,42.0,-100.00,South,174,8.0,19.0,61,0.00,,,0.00,252.000000,,2013-04-16 21:02:00,
2013-04-16 17:12:00,55.0,42.0,-100.00,South,174,8.0,19.0,61,0.00,,,0.00,252.000000,,2013-04-16 21:12:00,
2013-04-16 17:22:00,55.0,42.0,-100.00,South,174,8.0,19.0,61,0.00,,,0.00,252.000000,,2013-04-16 21:22:00,
2013-04-16 17:53:00,55.0,41.0,-100.00,South,184,8.0,23.0,60,0.00,,,0.00,145.000000,,2013-04-16 21:53:00,
2013-04-16 18:03:00,55.0,41.0,-100.00,South,184,8.0,23.0,60,0.00,,,0.00,145.000000,,2013-04-16 22:03:00,
2013-04-16 18:13:00,55.0,41.0,-100.00,South,184,8.0,23.0,60,0.00,,,0.00,145.000000,,2013-04-16 22:13:00,
2013-04-16 18:22:00,55.0,41.0,-100.00,South,184,8.0,23.0,60,0.00,,,0.00,145.000000,,2013-04-16 22:22:00,
2013-04-16 18:52:00,54.0,43.0,-100.00,South,172,5.0,17.0,66,0.00,,,0.00,54.000000,,2013-04-16 22:52:00,
2013-04-16 19:02:00,54.0,43.0,-100.00,South,172,5.0,17.0,66,0.00,,,0.00,54.000000,,2013-04-16 23:02:00,
2013-04-16 19:12:00,54.0,43.0,-100.00,South,172,5.0,17.0,66,0.00,,,0.00,54.000000,,2013-04-16 23:12:00,
2013-04-16 19:22:00,54.0,43.0,-100.00,South,172,5.0,17.0,66,0.00,,,0.00,54.000000,,2013-04-16 23:22:00,
2013-04-16 19:52:00,54.0,43.0,-100.00,SSW,200,5.0,16.0,65,0.00,,,0.00,22.000000,,2013-04-16 23:52:00,
2013-04-16 20:02:00,54.0,43.0,-100.00,SSW,200,5.0,16.0,65,0.00,,,0.00,22.000000,,2013-04-17 00:02:00,
2013-04-16 20:12:00,54.0,43.0,-100.00,SSW,200,5.0,16.0,65,0.00,,,0.00,22.000000,,2013-04-17 00:12:00,
2013-04-16 20:22:00,54.0,43.0,-100.00,SSW,200,5.0,16.0,65,0.00,,,0.00,22.000000,,2013-04-17 00:22:00,
2013-04-16 20:52:00,52.0,43.0,-100.00,SSE,158,4.0,15.0,71,0.00,,,0.00,2.000000,,2013-04-17 00:52:00,
2013-04-16 21:02:00,52.0,43.0,-100.00,SSE,158,4.0,15.0,71,0.00,,,0.00,2.000000,,2013-04-17 01:02:00,
2013-04-16 21:12:00,52.0,43.0,-100.00,SSE,158,4.0,15.0,71,0.00,,,0.00,2.000000,,2013-04-17 01:12:00,
2013-04-16 21:22:00,52.0,43.0,-100.00,SSE,158,4.0,15.0,71,0.00,,,0.00,2.000000,,2013-04-17 01:22:00,
2013-04-16 21:52:00,51.0,46.0,-100.00,SSW,205,4.0,11.0,82,0.00,,,0.00,0.000000,,2013-04-17 01:52:00,
2013-04-16 22:02:00,51.0,46.0,-100.00,SSW,205,4.0,11.0,82,0.00,,,0.00,0.000000,,2013-04-17 02:02:00,
2013-04-16 22:12:00,51.0,46.0,-100.00,SSW,205,4.0,11.0,82,0.00,,,0.00,0.000000,,2013-04-17 02:12:00,
2013-04-16 22:22:00,51.0,46.0,-100.00,SSW,205,4.0,11.0,82,0.00,,,0.00,0.000000,,2013-04-17 02:22:00,
2013-04-16 22:52:00,57.0,48.0,-100.00,WSW,250,5.0,15.0,73,0.00,,,0.00,0.000000,,2013-04-17 02:52:00,
2013-04-16 23:02:00,57.0,48.0,-100.00,WSW,250,5.0,15.0,73,0.00,,,0.00,0.000000,,2013-04-17 03:02:00,
2013-04-16 23:12:00,57.0,48.0,-100.00,WSW,250,5.0,15.0,73,0.00,,,0.00,0.000000,,2013-04-17 03:12:00,
2013-04-16 23:22:00,57.0,48.0,-100.00,WSW,250,5.0,15.0,73,0.00,,,0.00,0.000000,,2013-04-17 03:22:00,
2013-04-16 23:53:00,58.0,50.0,-100.00,WSW,242,6.0,15.0,75,0.00,,,0.00,0.000000,,2013-04-17 03:53:00,